User: anonymous   Login
Location: Vancouver
(49.2500°N, 123.1330°W)
Time: 02:35:06
(UTC-08:00)
Language:

Cosmos 1864 Rocket - Orbit

View from above orbital plane
View from above orbital plane
View from above satellite
View from above satellite

Ground track
Ground track

The orbit data is extracted from the following two-line orbital elements,

1 18161U 87057B   16036.58319117 +.00000110 +00000-0 +96037-4 0  9996
2 18161 082.9322 082.2334 0029755 265.8135 258.8994 13.76917692415483
Epoch (UTC): 05 February 2016 13:59:47
Eccentricity: 0.0029755
inclination: 82.9322°
perigee height: 953 km
apogee height: 997 km
right ascension of ascending node: 82.2334°
argument of perigee: 265.8135°
revolutions per day: 13.76917692
mean anomaly at epoch: 258.8994°
orbit number at epoch: 41548

The dashed part of the orbit path shows where the satellite is in the earth's shadow,  

DLR